Dewpoint
44 44 45 45 45 45 41 39 31 42 43 31 30 27 24 25 25 29 27 27 25 24 23 23 25 27 29 30 32 32 35 31 26 29 31 32 31 30 29 25 24 27 26 25
44 45 45 46 45 44 40 36 35 40 41 27 28 23 23 25 25 27 26 27 26 25 23 24 27 29 30 31 31 31 32 28 23 22 26 32 33 29 30 28 28 26 23 25
44 45 46 45 46 44 40 37 30 36 36 35 31 22 21 23 25 25 26 27 28 25 23 24 27 26 29 30 31 33 35 29 29 25 28 32 30 31 31 29 26 26 27 28
45 46 45 45 45 44 40 37 31 33 28 27 29 22 21 22 21 26 26 27 28 28 23 23 26 26 29 29 30 31 33 27 32 30 29 32 33 32 33 31 31 27 29 29
45 46 46 45 44 42 37 33 31 34 33 32 28 22 19 21 22 25 24 27 27 27 26 26 25 27 29 29 30 30 30 24 27 24 27 29 31 31 31 32 29 29 31 30
46 46 46 46 44 45 36 34 35 31 29 27 26 23 19 22 24 24 26 28 28 28 28 29 29 29 30 30 30 30 29 27 25 21 24 22 23 32 28 28 28 28 27 31
45 46 47 47 45 45 39 34 33 28 26 27 25 20 22 25 26 25 29 30 29 29 31 33 31 29 29 30 31 31 29 27 25 21 20 17 27 33 31 30 30 30 31 33
45 47 46 47 46 46 38 36 32 27 23 24 21 22 25 27 28 28 29 30 31 35 34 30 26 26 27 29 30 29 30 28 23 18 21 25 28 30 30 30 30 32 31 32
46 47 46 46 46 46 41 36 37 30 24 22 27 22 24 24 26 28 30 32 34 35 34 29 22 20 20 22 25 29 28 28 25 21 19 19 26 29 31 31 27 33 33 32
46 47 47 47 47 47 39 34 37 32 24 28 28 22 22 26 28 28 29 30 32 34 30 25 23 21 25 20 20 21 21 21 21 21 19 22 27 29 30 24 28 34 34 35
46 47 48 48 47 41 37 33 36 31 28 28 29 29 27 26 28 27 30 29 31 31 28 25 24 24 24 22 23 22 20 18 19 20 19 15 30 30 28 32 35 35 35 36
47 47 48 47 47 44 39 29 34 34 29 28 30 30 30 30 30 30 31 30 30 33 30 28 26 24 25 23 18 26 17 22 20 22 21 31 34 33 36 36 36 36 36 36
46 46 46 46 48 47 40 32 34 32 30 30 29 28 30 31 31 32 29 31 33 32 32 30 28 24 25 20 20 22 25 26 24 24 28 32 35 36 37 38 38 38 38 38
50 46 45 47 48 44 36 32 36 34 29 22 24 30 29 31 31 31 31 32 33 33 31 29 27 25 28 24 24 24 24 26 24 26 30 33 34 36 37 38 39 39 39 38
50 47 47 48 45 40 36 35 35 35 31 22 25 29 30 31 31 31 32 32 31 30 29 27 25 28 26 26 26 24 27 25 23 20 30 29 31 36 37 37 37 38 39 39
47 47 45 44 41 37 38 28 34 34 34 23 16 29 29 30 30 30 29 29 30 29 28 27 27 29 26 22 20 21 25 27 26 25 29 31 32 36 37 36 37 37 38 38
43 42 39 37 39 36 31 29 34 35 35 25 21 23 28 30 29 30 30 30 29 29 27 25 26 27 27 25 19 17 22 27 30 32 32 33 35 35 36 35 35 36 36 37
42 39 39 38 37 37 30 33 36 37 30 31 22 24 24 29 26 27 30 28 28 28 26 27 24 27 26 19 20 22 25 30 32 32 32 33 34 35 35 35 36 35 34 34
41 37 42 38 32 29 32 37 37 35 33 24 25 12 12 30 28 29 27 29 23 28 23 23 26 22 18 13 14 21 26 29 31 32 33 34 33 34 34 35 34 34 34 34
38 35 33 32 34 38 36 32 26 29 30 29 22 28 21 27 27 25 27 27 25 21 25 27 23 19 21 22 22 21 24 30 32 31 32 33 33 34 34 34 34 33 33 33
34 31 30 36 38 31 27 20 20 24 16 26 26 27 22 29 22 24 27 24 26 16 21 22 19 20 23 25 23 24 24 31 32 32 32 33 33 34 34 33 33 32 33 33
35 35 37 36 31 26 17 13 22 22 12 25 23 26 27 28 30 27 25 22 22 7 25 20 11 13 23 24 24 23 27 31 32 32 32 33 33 34 33 32 31 31 32 32
39 33 27 25 26 18 13 11 12 16 23 26 28 26 26 27 29 27 25 21 15 24 20 12 11 19 24 23 24 25 29 32 33 32 32 32 32 32 31 31 31 32 32 33
32 26 20 21 23 22 19 15 14 24 27 27 28 27 25 28 25 25 19 21 24 17 10 3 12 21 24 24 25 27 30 32 32 32 31 30 30 30 30 31 32 32 31 32
36 34 28 26 26 29 29 29 27 29 30 29 26 27 26 25 23 24 22 19 14 15 4 12 22 26 25 24 25 28 31 31 31 31 30 30 30 30 30 31 31 30 30 30
35 33 31 31 29 28 28 27 26 31 30 30 29 24 23 21 22 21 17 12 3 3 18 23 26 24 24 25 26 28 31 31 30 30 30 30 29 29 28 29 28 28 27 26
31 30 34 31 29 27 28 28 28 32 28 21 24 18 13 23 20 17 19 14 11 25 30 29 25 21 23 26 27 29 30 30 30 30 30 30 29 28 28 27 28 27 27 27
Wind_Speed
8 5 5 9 16 13 12 5 7 7 7 3 2 3 2 2 2 3 3 4 6 3 6 5 4 3 2 1 1 4 4 3 5 4 7 5 5 6 5 5 10 6 3 8
7 6 9 12 15 7 8 5 5 4 4 5 2 1 3 6 3 3 4 3 5 4 3 5 6 3 2 4 2 3 3 3 7 4 1 8 8 13 10 5 2 21 5 7
9 11 14 11 11 8 7 6 5 2 4 1 2 3 2 3 5 4 5 2 6 3 4 5 5 3 0 2 2 3 1 4 6 12 7 3 9 23 24 11 9 9 18 18
11 14 13 10 8 6 4 3 3 3 2 2 4 4 2 3 2 3 4 3 5 4 4 5 4 2 3 3 3 2 1 8 10 9 8 23 21 22 19 22 14 12 12 19
13 16 12 10 7 2 5 5 5 3 2 2 3 4 4 5 4 4 3 6 6 9 7 6 3 2 3 2 8 4 2 1 4 4 8 23 17 18 19 14 12 12 7 12
15 15 10 8 4 5 4 2 2 5 1 2 2 2 3 5 3 4 6 5 6 7 4 4 3 3 2 1 3 6 3 2 2 1 4 1 9 11 13 10 14 6 11 4
11 13 11 8 3 9 2 2 2 3 4 2 1 7 10 9 6 5 5 11 4 4 7 6 2 1 2 0 3 3 4 4 1 1 3 5 2 4 7 14 15 12 8 4
11 14 12 7 4 6 6 4 4 3 5 4 7 9 9 10 10 6 5 6 2 7 4 3 3 3 1 1 0 3 3 1 2 3 6 4 2 3 1 3 8 12 11 6
14 13 12 9 4 1 4 4 2 3 4 4 5 3 5 3 3 3 3 2 4 6 2 2 4 2 1 2 2 1 3 1 2 2 2 2 2 4 1 2 4 9 10 12
12 12 15 11 7 4 1 3 5 4 5 2 5 2 1 2 3 5 2 1 2 2 4 3 4 2 1 1 2 1 2 3 2 3 2 2 4 4 1 0 4 5 6 9
14 13 16 12 8 6 3 1 4 3 4 2 5 4 2 3 3 3 2 2 3 3 3 2 1 1 1 2 2 1 2 2 2 2 2 3 3 3 5 10 8 9 8 7
14 15 16 13 12 7 4 2 3 8 8 3 1 3 3 2 0 3 2 2 1 2 1 2 0 0 0 2 2 1 3 4 2 6 3 3 2 6 7 15 13 7 11 9
25 21 17 14 13 8 1 2 0 5 5 3 1 1 1 3 2 2 2 1 1 2 2 1 1 1 1 2 4 3 4 4 3 1 4 7 8 7 8 14 14 12 10 10
27 26 19 14 10 8 4 1 1 3 3 3 2 2 2 5 4 3 3 1 0 1 1 0 1 2 2 3 3 4 6 9 7 4 3 4 7 8 12 13 13 12 9 9
27 23 15 11 11 7 4 3 2 3 2 3 1 4 3 4 2 0 2 2 0 1 1 1 3 2 1 2 2 9 11 10 11 11 16 8 12 17 14 15 14 13 12 9
19 18 14 11 10 10 1 2 2 4 3 4 2 2 2 3 2 2 2 1 1 1 2 3 2 1 1 3 5 8 16 11 11 4 13 8 9 19 15 14 13 10 11 9
15 16 16 15 10 3 0 1 3 6 1 2 0 2 2 2 2 2 1 2 1 1 2 3 2 2 3 4 7 5 13 14 10 14 18 7 16 13 17 13 12 10 9 8
17 12 12 13 16 12 3 5 7 7 2 2 1 2 2 3 2 2 1 1 2 2 2 1 4 2 3 9 18 6 10 14 16 15 5 13 14 16 15 13 13 11 10 8
15 12 9 2 3 2 2 3 4 1 1 2 3 3 2 1 1 1 1 1 3 1 3 4 4 5 12 16 14 20 18 19 18 12 8 17 19 21 18 16 14 12 11 11
15 1 1 1 1 5 6 2 1 1 1 1 4 3 4 5 3 2 2 0 2 3 4 3 6 10 23 18 14 12 23 19 23 19 15 15 17 21 20 18 15 13 12 11
3 4 5 1 1 2 4 3 2 2 3 4 3 5 5 5 5 6 4 3 1 3 2 4 5 9 8 7 21 18 20 23 24 7 14 16 19 23 20 16 14 12 12 11
10 8 5 2 2 3 2 5 3 6 6 7 8 5 4 3 2 3 3 3 1 6 4 2 6 10 9 6 10 18 20 23 22 15 19 20 20 21 20 18 15 13 11 10
4 3 4 3 2 6 8 11 6 5 6 7 5 7 5 2 1 1 3 5 8 2 3 6 12 4 6 8 8 14 17 21 20 14 15 17 18 18 19 18 14 14 12 10
2 5 6 10 8 8 8 8 4 1 3 13 9 5 2 3 5 3 4 4 2 4 6 10 7 9 14 12 11 17 21 22 23 21 20 20 21 19 17 17 17 16 13 12
5 5 7 10 5 2 4 5 6 3 10 11 5 4 3 3 3 5 2 3 7 9 9 6 6 5 11 14 14 18 22 22 23 21 22 21 20 20 18 15 15 13 12 11
3 6 4 2 2 7 4 4 3 4 12 6 4 3 2 8 5 5 11 5 8 6 7 7 4 6 11 13 14 16 18 20 21 21 20 20 20 21 19 15 14 13 12 11
5 5 6 5 4 6 5 9 9 11 12 6 5 6 8 2 4 6 8 8 7 7 9 6 6 8 11 12 13 15 18 19 19 19 18 18 15 16 16 16 13 12 11 9
Wind_Direction
24 50 82 127 133 120 61 64 75 343 351 56 20 39 16 4 30 339 346 349 49 131 134 120 114 128 73 269 8 342 216 268 295 279 282 269 253 301 321 39 355 343 357 41
57 79 116 134 142 92 110 73 74 319 349 88 29 16 52 44 27 5 348 27 21 24 66 101 112 200 55 36 13 334 325 330 335 0 118 12 15 26 27 44 67 19 19 14
87 111 127 120 125 112 90 110 106 350 2 301 308 98 96 73 23 47 9 27 30 15 73 48 123 123 156 240 273 260 294 346 51 66 54 356 37 35 27 37 35 27 32 15
104 123 128 136 142 60 86 77 119 172 104 2 348 44 96 100 77 31 5 28 84 63 81 72 86 57 12 246 303 284 195 41 77 76 82 64 47 44 31 44 34 49 15 27
121 138 142 146 144 29 76 117 133 140 185 255 5 29 36 108 88 29 9 111 87 35 78 66 74 92 47 38 332 13 13 126 28 62 65 73 57 39 37 34 35 51 24 36
130 152 147 150 147 15 79 25 90 117 82 67 56 353 68 103 90 14 55 111 96 66 24 20 18 53 103 78 15 340 26 61 97 119 212 36 35 17 47 41 36 30 40 19
139 160 163 173 166 47 91 32 77 85 89 125 52 78 100 77 40 117 25 41 90 340 319 322 315 36 270 82 30 23 349 1 66 325 34 55 178 117 68 54 28 32 88 99
137 153 167 183 192 22 55 25 48 52 89 104 68 90 100 88 64 69 67 21 352 330 339 9 41 19 71 119 329 358 22 354 24 78 66 126 191 212 200 45 9 5 21 98
149 158 166 184 193 178 23 37 13 69 111 34 298 132 141 131 109 77 67 342 328 22 343 0 37 62 13 7 9 268 351 29 49 49 93 172 179 184 94 312 5 4 28 25
169 169 177 189 173 194 79 15 26 71 98 10 8 112 187 331 96 92 111 115 27 47 31 40 38 13 354 354 336 6 358 2 53 21 83 253 164 159 117 157 163 106 71 54
186 175 180 178 181 160 89 16 358 104 105 26 17 9 2 30 62 105 165 112 39 30 49 63 49 89 289 314 291 238 215 184 201 168 194 243 157 149 187 136 118 116 100 91
210 191 187 180 192 182 67 77 335 64 86 131 83 96 62 34 358 120 42 128 171 157 67 37 36 289 226 203 238 272 250 215 232 199 215 160 111 138 131 132 135 140 127 140
210 205 195 191 196 198 111 127 82 64 101 60 48 231 313 17 348 272 150 298 227 100 160 167 219 255 169 228 234 238 233 179 229 204 202 182 155 143 122 140 137 138 143 144
195 193 190 190 187 172 146 171 150 92 122 115 263 269 261 286 309 257 252 189 207 232 133 157 217 243 181 234 248 231 207 165 192 243 251 156 211 187 151 136 136 137 134 134
156 166 171 165 172 167 116 108 75 131 142 180 212 323 279 309 316 204 214 240 165 127 178 207 234 235 256 262 267 235 191 186 180 211 197 187 208 188 171 160 165 159 149 141
133 141 145 153 148 136 348 327 12 13 133 112 163 297 302 332 9 74 73 58 107 135 183 241 261 172 187 266 251 247 203 195 177 212 184 204 184 170 167 170 166 156 150 151
112 123 137 147 175 141 319 301 321 336 14 108 69 273 281 276 313 321 306 341 263 177 210 228 217 227 186 240 241 242 206 186 170 140 131 118 154 174 170 161 163 143 138 134
133 133 132 128 112 114 68 0 6 355 54 91 214 276 303 181 209 254 349 294 337 253 237 232 206 190 207 252 235 248 184 159 156 150 132 170 152 148 156 151 153 157 164 164
149 151 141 134 35 114 224 275 319 58 279 274 176 210 245 152 214 159 84 68 264 327 243 236 171 213 227 230 223 201 183 177 180 166 140 153 160 162 161 164 172 175 179 177
158 120 124 260 302 295 324 21 39 9 278 136 251 138 171 159 161 222 174 143 247 257 247 148 225 254 252 243 226 212 194 178 158 159 170 168 171 172 174 187 184 185 184 175
163 188 202 183 313 68 36 293 259 208 228 198 213 179 166 209 162 194 209 209 193 257 223 220 258 265 245 229 214 210 195 180 180 178 171 176 175 175 177 184 186 180 176 181
174 134 101 46 55 75 227 230 256 228 234 185 172 190 164 168 192 161 187 202 149 243 150 237 257 252 235 212 199 190 182 176 173 172 179 179 177 177 178 177 176 176 177 166
100 106 130 147 169 238 211 204 213 221 190 175 168 151 149 119 125 143 174 204 224 125 214 236 237 257 223 208 182 177 176 171 167 166 171 170 169 169 171 171 170 165 166 170
132 175 207 208 203 224 200 204 208 219 128 148 136 112 148 147 163 171 235 230 159 231 234 238 252 242 211 195 190 170 175 172 169 168 165 162 161 163 163 164 162 163 173 178
181 176 221 224 232 208 189 155 141 137 145 136 112 101 151 170 206 199 152 246 244 228 237 236 260 231 186 186 186 182 175 172 172 169 169 167 161 159 158 160 160 163 167 175
224 221 220 205 257 236 219 178 159 159 151 125 104 141 230 233 201 188 216 193 229 256 234 262 232 209 198 193 194 193 181 176 174 172 172 167 166 168 164 159 164 170 174 180
224 224 213 178 256 249 216 179 188 165 160 191 153 193 223 107 233 234 193 224 245 293 291 277 243 242 229 214 198 189 183 181 177 172 170 172 163 153 156 170 181 182 188 197